sat.trackr.live / text

‹ back to catalog

STARLINK-36595

NORAD 67639 · 2026-020Y

PAYLOAD ACTIVE UNKNOWN

§ Identity

Operator
Country
US
Launch date
2026-01-30
Launch site
AFETR
Launch vehicle
Mass (kg)
RCS (m²)

Purposes: comms

External: N2YO · Heavens-Above · Gunter

§ Orbital elements

Epoch: 2026-09-19T21:21:27.653760Z

Period
94.27 min
Inclination
43.0001°
Eccentricity
0.0001768
Mean motion
15.27544041 rev/d
Perigee alt
481.9 km
Apogee alt
484.4 km
Semi-major
6,861.3 km
B*
-4.5615e-4
RAAN
123.0599°
Arg perigee
281.2181°
Mean anomaly
78.8471°
Rev number
3,581

§ Raw data

STARLINK-365951 67639U 26020Y   26262.88990340 -.00012779  00000+0 -45615-3 0  99912 67639  43.0001 123.0599 0001768 281.2181  78.8471 15.27544041 35810

JSON: /api/v1/satellites/67639 · /tle

For live sub-satellite position, see the globe view (requires WebGL).

§ Visibility from observer

Set your observer location to see the next 7 days of passes ≥ 10°. The values pass through the URL so the page stays shareable.

No JS? Fill the form by hand. The geolocation button needs JavaScript.